Location: Julian California
(33.0790°N, 116.6010°W)
Time: 10:31:21
(UTC-07:00)

SPOT 1/Viking Rocket - Pass Details

Date: 19 May 2017
Orbit: 777 x 795 km, 98.6° (Epoch: 23 September)

Event Time Altitude Azimuth Distance (km) Brightness Sun altitude
Exits shadow 21:48:20 39° 85° (E) 1,156 4.1 -22.5°
Maximum altitude 21:48:47 40° 72° (ENE) 1,140 4.1 -22.6°
Drops below altitude 10° 21:53:35 10° 4° (N) 2,341 6.5 -23.3°
Sets 21:56:00 0° 357° (N) 3,270 7.5 -23.6°
